| time (UTC) | temp C | wind direction | speed KPH | gust KPH | rain 1hr cm | rain 24hr cm | rain mn cm | humidity % | barometer mb |
| 20260504160116 | 13 | 158 | 3.2 | 3.2 | 0.00 | 0.00 | 0.00 | 62 | 1015.1 |
| 20260504151116 | 12 | 135 | 9.7 | 14.5 | 0.00 | 0.00 | 0.00 | 63 | 1014.8 |
| 20260504150116 | 12 | 135 | 6.4 | 8.0 | 0.00 | 0.00 | 0.00 | 63 | 1014.6 |
| 20260504141116 | 12 | 135 | 4.8 | 8.0 | 0.00 | 0.00 | 0.00 | 64 | 1014.1 |
| 20260504140115 | 12 | 158 | 1.6 | 4.8 | 0.00 | 0.00 | 0.00 | 64 | 1014.0 |
| 20260504130116 | 12 | 135 | 6.4 | 12.9 | 0.00 | 0.00 | 0.00 | 63 | 1013.1 |
| 20260504120116 | 14 | 158 | 6.4 | 11.3 | 0.00 | 0.00 | 0.00 | 59 | 1012.3 |
| 20260504110136 | 16 | 135 | 4.8 | 8.0 | 0.00 | 0.00 | 0.00 | 54 | 1011.9 |
| 20260504100137 | 17 | 158 | 6.4 | 11.3 | 0.00 | 0.00 | 0.00 | 48 | 1011.3 |
| 20260504081138 | 18 | 158 | 1.6 | 3.2 | 0.00 | 0.00 | 0.00 | 44 | 1010.6 |
| 20260504080137 | 18 | 158 | 3.2 | 6.4 | 0.00 | 0.00 | 0.00 | 44 | 1010.6 |
| 20260504070117 | 20 | 180 | 3.2 | 3.2 | 0.00 | 0.00 | 0.00 | 43 | 1010.3 |
| 20260504060116 | 22 | 293 | 3.2 | 4.8 | 0.00 | 0.00 | 0.00 | 32 | 1010.0 |
| 20260504050116 | 23 | 293 | 6.4 | 11.3 | 0.00 | 0.00 | 0.00 | 31 | 1009.5 |
| 20260504045115 | 24 | 293 | 6.4 | 9.7 | 0.00 | 0.00 | 0.00 | 31 | 1009.6 |
| 20260504044115 | 24 | 293 | 6.4 | 11.3 | 0.00 | 0.00 | 0.00 | 31 | 1009.4 |
| 20260504043115 | 25 | 315 | 4.8 | 6.4 | 0.00 | 0.00 | 0.00 | 31 | 1009.3 |
| 20260504042116 | 25 | 293 | 3.2 | 6.4 | 0.00 | 0.00 | 0.00 | 31 | 1009.4 |
| 20260504041136 | 25 | 315 | 4.8 | 8.0 | 0.00 | 0.00 | 0.00 | 30 | 1009.2 |
| 20260504040116 | 25 | 338 | 4.8 | 6.4 | 0.00 | 0.00 | 0.00 | 29 | 1009.2 |
| 20260504035158 | 26 | 315 | 4.8 | 6.4 | 0.00 | 0.00 | 0.00 | 29 | 1009.1 |
| 20260504034116 | 26 | 315 | 4.8 | 8.0 | 0.00 | 0.00 | 0.00 | 28 | 1009.1 |
| 20260504033118 | 26 | 315 | 4.8 | 6.4 | 0.00 | 0.00 | 0.00 | 28 | 1009.0 |
| 20260504032117 | 26 | 315 | 3.2 | 8.0 | 0.00 | 0.00 | 0.00 | 27 | 1008.9 |
| 20260504031117 | 27 | 315 | 8.0 | 12.9 | 0.00 | 0.00 | 0.00 | 26 | 1008.8 |
| 20260504030117 | 27 | 315 | 9.7 | 16.1 | 0.00 | 0.00 | 0.00 | 25 | 1008.8 |
| 20260504025118 | 27 | 315 | 6.4 | 9.7 | 0.00 | 0.00 | 0.00 | 24 | 1008.8 |
| 20260504024158 | 27 | 315 | 6.4 | 9.7 | 0.00 | 0.00 | 0.00 | 23 | 1008.6 |
| 20260504023117 | 28 | 315 | 6.4 | 12.9 | 0.00 | 0.00 | 0.00 | 23 | 1008.7 |
| 20260504022117 | 28 | 338 | 6.4 | 12.9 | 0.00 | 0.00 | 0.00 | 22 | 1008.8 |
| 20260504021117 | 28 | 315 | 8.0 | 14.5 | 0.00 | 0.00 | 0.00 | 22 | 1008.7 |
| 20260504020117 | 28 | 315 | 8.0 | 12.9 | 0.00 | 0.00 | 0.00 | 21 | 1008.8 |
| 20260504015117 | 29 | 315 | 9.7 | 14.5 | 0.00 | 0.00 | 0.00 | 20 | 1008.8 |
| 20260504014118 | 29 | 0 | 8.0 | 14.5 | 0.00 | 0.00 | 0.00 | 20 | 1008.8 |
| 20260504013137 | 30 | 315 | 8.0 | 12.9 | 0.00 | 0.00 | 0.00 | 18 | 1009.0 |
| 20260504012117 | 31 | 0 | 8.0 | 16.1 | 0.00 | 0.00 | 0.00 | 17 | 1009.2 |
| 20260504011117 | 31 | 338 | 9.7 | 16.1 | 0.00 | 0.00 | 0.00 | 17 | 1009.4 |
| 20260504010137 | 31 | 293 | 11.3 | 17.7 | 0.00 | 0.00 | 0.00 | 16 | 1009.6 |
| 20260504005117 | 32 | 315 | 9.7 | 16.1 | 0.00 | 0.00 | 0.00 | 16 | 1009.7 |
| 20260504004117 | 32 | 338 | 6.4 | 9.7 | 0.00 | 0.00 | 0.00 | 18 | 1009.7 |
| 20260504003117 | 32 | 338 | 8.0 | 12.9 | 0.00 | 0.00 | 0.00 | 16 | 1009.7 |
| 20260504002117 | 32 | 315 | 8.0 | 16.1 | 0.00 | 0.00 | 0.00 | 15 | 1009.8 |
| 20260504001117 | 32 | 315 | 8.0 | 14.5 | 0.00 | 0.00 | 0.00 | 14 | 1009.9 |
| 20260504000117 | 32 | 315 | 9.7 | 17.7 | 0.00 | 0.00 | 0.00 | 14 | 1010.0 |
| 20260503235117 | 32 | 0 | 3.2 | 8.0 | 0.00 | 0.00 | 0.00 | 16 | 1010.0 |
| 20260503234137 | 32 | 315 | 6.4 | 11.3 | 0.00 | 0.00 | 0.00 | 14 | 1010.1 |
| 20260503233138 | 32 | 338 | 12.9 | 16.1 | 0.00 | 0.00 | 0.00 | 14 | 1010.3 |
| 20260503232117 | 33 | 338 | 6.4 | 11.3 | 0.00 | 0.00 | 0.00 | 13 | 1010.4 |
| 20260503231158 | 33 | 0 | 6.4 | 9.7 | 0.00 | 0.00 | 0.00 | 15 | 1010.5 |
| 20260503230117 | 33 | 315 | 8.0 | 11.3 | 0.00 | 0.00 | 0.00 | 14 | 1010.6 |
| 20260503225116 | 33 | 270 | 6.4 | 9.7 | 0.00 | 0.00 | 0.00 | 14 | 1010.8 |
| 20260503224117 | 33 | 23 | 3.2 | 6.4 | 0.00 | 0.00 | 0.00 | 16 | 1010.9 |
| 20260503223116 | 33 | 0 | 4.8 | 6.4 | 0.00 | 0.00 | 0.00 | 15 | 1011.0 |
| 20260503222116 | 33 | 338 | 3.2 | 4.8 | 0.00 | 0.00 | 0.00 | 16 | 1011.2 |
| 20260503221116 | 33 | 0 | 1.6 | 3.2 | 0.00 | 0.00 | 0.00 | 16 | 1011.3 |
| 20260503220116 | 32 | 315 | 6.4 | 12.9 | 0.00 | 0.00 | 0.00 | 16 | 1011.5 |
| 20260503215117 | 32 | 293 | 1.6 | 4.8 | 0.00 | 0.00 | 0.00 | 15 | 1011.6 |
| 20260503214116 | 32 | 338 | 4.8 | 6.4 | 0.00 | 0.00 | 0.00 | 18 | 1011.6 |
| 20260503213117 | 32 | 225 | 1.6 | 4.8 | 0.00 | 0.00 | 0.00 | 19 | 1011.8 |
| 20260503212116 | 32 | 315 | 3.2 | 4.8 | 0.00 | 0.00 | 0.00 | 21 | 1011.8 |
| 20260503211137 | 32 | 315 | 4.8 | 8.0 | 0.00 | 0.00 | 0.00 | 22 | 1011.9 |
| 20260503210117 | 31 | 270 | 4.8 | 9.7 | 0.00 | 0.00 | 0.00 | 23 | 1012.0 |
| 20260503205117 | 31 | 338 | 6.4 | 9.7 | 0.00 | 0.00 | 0.00 | 24 | 1012.2 |
| 20260503204116 | 31 | 338 | 6.4 | 9.7 | 0.00 | 0.00 | 0.00 | 24 | 1012.4 |
| 20260503203116 | 31 | 293 | 6.4 | 11.3 | 0.00 | 0.00 | 0.00 | 25 | 1012.3 |
| 20260503202116 | 30 | 270 | 8.0 | 12.9 | 0.00 | 0.00 | 0.00 | 27 | 1012.5 |
| 20260503201116 | 30 | 293 | 8.0 | 12.9 | 0.00 | 0.00 | 0.00 | 28 | 1012.7 |
| 20260503200117 | 30 | 315 | 8.0 | 12.9 | 0.00 | 0.00 | 0.00 | 31 | 1012.9 |
| 20260503195116 | 29 | 270 | 8.0 | 11.3 | 0.00 | 0.00 | 0.00 | 28 | 1012.9 |
| 20260503194117 | 29 | 293 | 3.2 | 4.8 | 0.00 | 0.00 | 0.00 | 30 | 1013.0 |
| 20260503193116 | 28 | 270 | 6.4 | 9.7 | 0.00 | 0.00 | 0.00 | 31 | 1013.1 |
| 20260503192116 | 28 | 248 | 4.8 | 8.0 | 0.00 | 0.00 | 0.00 | 33 | 1013.1 |
| 20260503191116 | 28 | 270 | 4.8 | 6.4 | 0.00 | 0.00 | 0.00 | 35 | 1013.2 |
| 20260503190117 | 27 | 270 | 4.8 | 8.0 | 0.00 | 0.00 | 0.00 | 36 | 1013.3 |
| 20260503185117 | 26 | 293 | 9.7 | 12.9 | 0.00 | 0.00 | 0.00 | 37 | 1013.4 |
| 20260503184116 | 26 | 315 | 3.2 | 6.4 | 0.00 | 0.00 | 0.00 | 36 | 1013.5 |
| 20260503183116 | 26 | 270 | 4.8 | 6.4 | 0.00 | 0.00 | 0.00 | 37 | 1013.5 |
| 20260503182116 | 25 | 270 | 4.8 | 9.7 | 0.00 | 0.00 | 0.00 | 39 | 1013.6 |
| 20260503181116 | 25 | 293 | 3.2 | 9.7 | 0.00 | 0.00 | 0.00 | 43 | 1013.7 |
| 20260503180116 | 23 | 315 | 4.8 | 9.7 | 0.00 | 0.00 | 0.00 | 44 | 1013.9 |
| 20260503175116 | 23 | 293 | 4.8 | 4.8 | 0.00 | 0.00 | 0.00 | 46 | 1013.9 |
| 20260503174116 | 23 | 293 | 6.4 | 12.9 | 0.00 | 0.00 | 0.00 | 49 | 1014.0 |
| 20260503173136 | 22 | 315 | 3.2 | 4.8 | 0.00 | 0.00 | 0.00 | 51 | 1014.0 |
| 20260503172116 | 21 | 293 | 3.2 | 4.8 | 0.00 | 0.00 | 0.00 | 53 | 1014.0 |
| 20260503171116 | 20 | 0 | 6.4 | 8.0 | 0.00 | 0.00 | 0.00 | 55 | 1014.0 |
| 20260503170116 | 20 | 315 | 3.2 | 6.4 | 0.00 | 0.00 | 0.00 | 57 | 1014.0 |